User: anonymous   Login
Location: Unspecified
(0.0000°N, 0.0000°E)
Time: 05:40:39
(UTC+00:00)
Language:

SO-50 - Orbit

View from above orbital plane
View from above orbital plane
View from above satellite
View from above satellite

Ground track
Ground track

The orbit data is extracted from the following two-line orbital elements,

1 27607U 02058C   20190.71573426 -.00000040 +00000-0 +14828-4 0  9996
2 27607 064.5562 309.3601 0045274 170.8202 189.3739 14.75644812943868
Epoch (UTC): 08 July 2020 17:10:39
Eccentricity: 0.0045274
inclination: 64.5562°
perigee height: 611 km
apogee height: 675 km
right ascension of ascending node: 309.3601°
argument of perigee: 170.8202°
revolutions per day: 14.75644812
mean anomaly at epoch: 189.3739°
orbit number at epoch: 94386

The dashed part of the orbit path shows where the satellite is in the earth's shadow,  

DLR